Weather History for Vacaville, CA

Change the Weather History Date:

Monday, October 22, 2012

  Actual Average Record
Temperature  
Mean Temperature 58 °F -  
Max Temperature 64 °F 77 °F 93 °F (1959)
Min Temperature 51 °F 46 °F 33 °F (1949)
Degree Days  
Heating Degree Days 8    
Growing Degree Days 8 (Base 50)    
Moisture  
Dew Point 50 °F    
Average Humidity 87    
Maximum Humidity 100    
Minimum Humidity 46    
Precipitation  
Precipitation 0.78 in - - ()
Sea Level Pressure  
Sea Level Pressure 29.83 in    
Wind  
Wind Speed 7 mph (South)    
Max Wind Speed 17 mph    
Max Gust Speed 22 mph    
Visibility 7 miles    
Events Rain    
Averages and records for this station are not official NWS values.
T = Trace of Precipitation, MM = Missing Value Source: NWS Daily Summary

Daily Weather History Graph

Daily Weather History Graph

Search for Another Location

Airport:

Trip Planner

Search our weather history database for the weather conditions in past years. The results will help you decide how hot, cold, wet, or windy it might be!

Date:

Astronomy

Oct. 22, 2012 Rise Set
Actual Time 7:24 AM PDT 6:19 PM PDT
Civil Twilight 6:57 AM PDT 6:46 PM PDT
Nautical Twilight 6:26 AM PDT 7:17 PM PDT
Astronomical Twilight 5:55 AM PDT 7:47 PM PDT
Moon 2:26 PM PDT (10/22) 12:22 AM PDT (10/22)
Length of Visible Light 11h 49m
Length of Day
10h 55m
First Quarter, 57% of the Moon is Illuminated
Oct 22
First Quarter
Oct 29
Full
Nov 6
Last Quarter
Nov 13
New
Nov 20
First Quarter

Hourly Weather History & Observations

Time (PDT) Temp. Dew Point Humidity Pressure Visibility Wind Dir Wind Speed Gust Speed Precip Events Conditions
12:53 AM 53.1 °F 51.1 °F 93% 29.83 in 6.0 mi South 6.9 mph - 0.07 in Rain Light Rain
1:53 AM 52.0 °F 51.1 °F 97% 29.83 in 5.0 mi South 6.9 mph - 0.13 in Rain Rain
2:20 AM 51.8 °F 51.8 °F 100% 29.82 in 5.0 mi SSE 6.9 mph - 0.06 in Rain Rain
2:45 AM 51.8 °F 51.8 °F 100% 29.82 in 8.0 mi SSE 5.8 mph - 0.10 in Rain Light Rain
2:50 AM 51.8 °F 51.8 °F 100% 29.81 in 7.0 mi SSE 6.9 mph - 0.10 in Rain Light Rain
2:53 AM 53.1 °F 52.0 °F 96% 29.81 in 7.0 mi SSE 6.9 mph - 0.10 in Rain Light Rain
3:22 AM 53.6 °F 51.8 °F 94% 29.78 in 6.0 mi SSE 9.2 mph - 0.05 in Rain Light Rain
3:53 AM 52.0 °F 51.1 °F 97% 29.78 in 4.0 mi SE 12.7 mph 20.7 mph 0.09 in Rain Rain
4:04 AM 51.8 °F 51.8 °F 100% 29.77 in 5.0 mi SE 10.4 mph - 0.01 in Rain Light Rain
4:44 AM 51.8 °F 51.8 °F 100% 29.77 in 6.0 mi South 8.1 mph - 0.07 in Rain Light Rain
4:53 AM 52.0 °F 50.0 °F 93% 29.77 in 4.0 mi South 11.5 mph 18.4 mph 0.09 in Rain Rain
5:53 AM 51.1 °F 50.0 °F 96% 29.75 in 10.0 mi SE 8.1 mph - 0.07 in Rain Light Rain
6:21 AM 51.8 °F 50.0 °F 94% 29.76 in 10.0 mi SSE 8.1 mph - 0.00 in Rain Light Rain
7:14 AM 51.8 °F 50.0 °F 94% 29.79 in 3.0 mi WNW 5.8 mph - 0.05 in Rain Rain
7:30 AM 51.8 °F 50.0 °F 94% 29.78 in 3.0 mi Calm Calm - 0.10 in Rain Rain
7:42 AM 51.8 °F 50.0 °F 94% 29.78 in 5.0 mi Calm Calm - 0.12 in Rain Light Rain
7:53 AM 52.0 °F 51.1 °F 97% 29.78 in 5.0 mi Calm Calm - 0.12 in Rain Light Rain
8:11 AM 51.8 °F 51.8 °F 100% 29.79 in 4.0 mi Calm Calm - 0.02 in Rain Light Rain
8:41 AM 51.8 °F 51.8 °F 100% 29.79 in 3.0 mi ESE 3.5 mph - 0.04 in Rain Rain
8:53 AM 52.0 °F 51.1 °F 97% 29.80 in 6.0 mi SSE 3.5 mph - 0.05 in Rain Light Rain
9:07 AM 51.8 °F 51.8 °F 100% 29.80 in 8.0 mi SSE 3.5 mph - 0.00 in   Overcast
9:53 AM 53.1 °F 52.0 °F 96% 29.82 in 10.0 mi South 5.8 mph - 0.00 in   Mostly Cloudy
10:14 AM 53.6 °F 53.6 °F 100% 29.83 in 10.0 mi South 8.1 mph - N/A   Mostly Cloudy
10:53 AM 57.0 °F 54.0 °F 89% 29.84 in 10.0 mi SW 8.1 mph - N/A   Clear
11:53 AM 59.0 °F 50.0 °F 72% 29.85 in 10.0 mi South 8.1 mph - N/A   Scattered Clouds
12:53 PM 60.1 °F 48.0 °F 64% 29.86 in 10.0 mi Variable 5.8 mph - N/A   Scattered Clouds
1:53 PM 63.0 °F 45.0 °F 52% 29.84 in 10.0 mi SW 12.7 mph 20.7 mph N/A   Scattered Clouds
2:53 PM 64.0 °F 43.0 °F 46% 29.85 in 10.0 mi SW 10.4 mph 20.7 mph N/A   Clear
3:53 PM 61.0 °F 42.1 °F 50% 29.86 in 10.0 mi WSW 13.8 mph - N/A   Scattered Clouds
4:53 PM 57.0 °F 46.0 °F 67% 29.87 in 10.0 mi SW 11.5 mph 21.9 mph 0.00 in Rain Light Rain
6:53 PM 55.9 °F 44.1 °F 64% 29.89 in 10.0 mi SW 17.3 mph 21.9 mph N/A   Mostly Cloudy
7:53 PM 55.0 °F 45.0 °F 69% 29.91 in 10.0 mi SSW 5.8 mph - 0.00 in   Mostly Cloudy
8:53 PM 54.0 °F 46.9 °F 77% 29.91 in 10.0 mi SSW 8.1 mph 16.1 mph 0.00 in   Overcast
9:53 PM 53.1 °F 48.9 °F 86% 29.92 in 10.0 mi South 6.9 mph - 0.01 in Rain Light Rain
11:18 PM 51.8 °F 48.2 °F 88% 29.93 in 6.0 mi SSW 10.4 mph 17.3 mph 0.04 in Rain Light Rain
11:53 PM 51.1 °F 48.0 °F 89% 29.93 in 10.0 mi South 5.8 mph - 0.05 in   Mostly Cloudy